Weather History for Clearfield, PA

Change the Weather History Date:

Thursday, February 23, 2012

  Actual Average (KDUJ) Record (KDUJ)
Temperature  
Mean Temperature 41 °F 28 °F  
Max Temperature 48 °F 37 °F 63 °F (1985)
Min Temperature 33 °F 20 °F -4 °F (1964)
Degree Days  
Heating Degree Days 24 37  
Month to date heating degree days 899  
Since 1 July heating degree days 4843  
Cooling Degree Days 0 0  
Month to date cooling degree days 0  
Year to date cooling degree days 0  
Moisture  
Dew Point 31 °F    
Average Humidity 73    
Maximum Humidity 96    
Minimum Humidity 34    
Precipitation  
Precipitation 0.39 in 0.09 in 1.58 in (1975)
Month to date precipitation 1.88  
Sea Level Pressure  
Sea Level Pressure 29.56 in    
Wind  
Wind Speed 6 mph (WNW)    
Max Wind Speed 14 mph    
Max Gust Speed 26 mph    
Visibility 9 miles    
Events Rain    
T = Trace of Precipitation, MM = Missing Value Source: NWS Daily Summary

Daily Weather History Graph

Daily Weather History Graph

Search for Another Location

Airport:

Trip Planner

Search our weather history database for the weather conditions in past years. The results will help you decide how hot, cold, wet, or windy it might be!

Date:

Astronomy

Feb. 23, 2012 Rise Set
Actual Time 6:57 AM EST 5:57 PM EST
Civil Twilight 6:29 AM EST 6:24 PM EST
Nautical Twilight 5:57 AM EST 6:56 PM EST
Astronomical Twilight 5:26 AM EST 7:28 PM EST
Moon 7:21 AM EST (2/23) 8:02 PM EST (2/23)
Length of Visible Light 11h 55m
Length of Day
10h 59m
Waxing Crescent, 3% of the Moon is Illuminated
Feb 23
Waxing Crescent
Feb 29
First Quarter
Mar 8
Full
Mar 14
Last Quarter
Mar 22
New

Hourly Weather History & Observations

Time (EST) Temp. Windchill Dew Point Humidity Pressure Visibility Wind Dir Wind Speed Gust Speed Precip Events Conditions
12:54 AM 43.0 °F - 30.9 °F 62% 29.40 in 10.0 mi Calm Calm - N/A   Overcast
1:54 AM 41.0 °F 38.0 °F 33.1 °F 73% 29.40 in 10.0 mi SW 4.6 mph - 0.00 in   Overcast
2:54 AM 37.0 °F - 35.1 °F 93% 29.39 in 10.0 mi Calm Calm - 0.02 in Rain Light Rain
3:11 AM 37.4 °F 30.3 °F 35.6 °F 93% 29.38 in 1.8 mi NNW 10.4 mph 17.3 mph 0.06 in Rain Heavy Rain
3:21 AM 39.2 °F 37.0 °F 35.6 °F 87% 29.38 in 3.0 mi West 3.5 mph - 0.08 in Rain Rain
3:54 AM 39.0 °F 34.8 °F 36.0 °F 89% 29.42 in 10.0 mi West 5.8 mph - 0.08 in   Mostly Cloudy
4:13 AM 39.2 °F 31.6 °F 35.6 °F 87% 29.42 in 10.0 mi WNW 12.7 mph - N/A   Overcast
4:22 AM 39.2 °F 34.2 °F 35.6 °F 87% 29.42 in 10.0 mi NNW 6.9 mph 19.6 mph N/A   Overcast
4:34 AM 37.4 °F 32.1 °F 33.8 °F 87% 29.42 in 10.0 mi NNW 6.9 mph - N/A   Overcast
4:54 AM 37.0 °F 33.3 °F 33.1 °F 86% 29.45 in 10.0 mi NNW 4.6 mph - N/A   Overcast
5:54 AM 36.0 °F 33.3 °F 33.1 °F 89% 29.48 in 10.0 mi SSW 3.5 mph - N/A   Overcast
6:54 AM 34.0 °F 29.8 °F 32.0 °F 92% 29.52 in 10.0 mi WSW 4.6 mph - N/A   Scattered Clouds
7:12 AM 35.6 °F 29.2 °F 30.2 °F 81% 29.50 in 10.0 mi West 8.1 mph - N/A   Mostly Cloudy
7:54 AM 36.0 °F 30.3 °F 32.0 °F 86% 29.56 in 10.0 mi West 6.9 mph - N/A   Overcast
8:52 AM 35.6 °F 29.2 °F 32.0 °F 87% 29.57 in 10.0 mi WSW 8.1 mph 16.1 mph N/A   Overcast
8:54 AM 36.0 °F 30.3 °F 32.0 °F 86% 29.60 in 10.0 mi WSW 6.9 mph 16.1 mph N/A   Overcast
9:27 AM 37.4 °F 31.4 °F 32.0 °F 81% 29.58 in 10.0 mi West 8.1 mph - N/A   Overcast
9:54 AM 37.9 °F 31.5 °F 32.0 °F 79% 29.61 in 10.0 mi West 9.2 mph - N/A   Overcast
10:34 AM 42.8 °F 36.2 °F 33.8 °F 70% 29.58 in 10.0 mi West 12.7 mph 16.1 mph N/A   Partly Cloudy
10:54 AM 44.1 °F 38.1 °F 33.1 °F 65% 29.62 in 10.0 mi West 11.5 mph 18.4 mph N/A   Scattered Clouds
11:05 AM 44.6 °F 40.2 °F 32.0 °F 61% 29.60 in 10.0 mi WNW 8.1 mph - N/A   Mostly Cloudy
11:22 AM 42.8 °F 35.8 °F 28.4 °F 57% 29.60 in 10.0 mi WNW 13.8 mph 21.9 mph N/A   Scattered Clouds
11:54 AM 45.0 °F 39.3 °F 28.0 °F 52% 29.62 in 10.0 mi West 11.5 mph 21.9 mph N/A   Scattered Clouds
12:54 PM 46.9 °F - 23.0 °F 39% 29.61 in 10.0 mi WNW 13.8 mph 21.9 mph N/A   Partly Cloudy
1:54 PM 48.0 °F - 21.0 °F 34% 29.61 in 10.0 mi West 13.8 mph 26.5 mph N/A   Clear
2:54 PM 46.9 °F - 21.0 °F 36% 29.65 in 10.0 mi West 10.4 mph - N/A   Clear
3:54 PM 46.9 °F - 21.9 °F 37% 29.65 in 10.0 mi SW 11.5 mph 17.3 mph N/A   Clear
4:54 PM 46.0 °F 43.1 °F 21.0 °F 37% 29.64 in 10.0 mi West 5.8 mph - N/A   Scattered Clouds
5:54 PM 45.0 °F - 21.0 °F 39% 29.64 in 10.0 mi Calm Calm - N/A   Overcast
6:54 PM 43.0 °F 41.3 °F 24.1 °F 47% 29.66 in 10.0 mi ENE 3.5 mph - N/A   Overcast
7:54 PM 42.1 °F - 24.1 °F 49% 29.67 in 10.0 mi Calm Calm - N/A   Overcast
8:54 PM 39.9 °F 36.7 °F 26.1 °F 58% 29.68 in 10.0 mi SSW 4.6 mph - N/A   Overcast
9:29 PM 39.2 °F - 33.8 °F 81% 29.65 in 7.0 mi Calm Calm - 0.03 in Rain Rain
9:50 PM 35.6 °F 30.7 °F 33.8 °F 93% 29.62 in 10.0 mi NE 5.8 mph - 0.06 in Rain Light Rain
9:54 PM 37.0 °F 31.6 °F 33.1 °F 86% 29.65 in 10.0 mi ENE 6.9 mph - 0.06 in Rain Light Rain
10:54 PM 36.0 °F 30.3 °F 34.0 °F 93% 29.64 in 6.0 mi NNE 6.9 mph - 0.09 in Rain Rain
11:09 PM 35.6 °F 28.0 °F 33.8 °F 93% 29.60 in 5.0 mi ENE 10.4 mph - 0.03 in Rain Rain
11:31 PM 35.6 °F 29.9 °F 33.8 °F 93% 29.61 in 3.0 mi NNE 6.9 mph - 0.10 in Rain Heavy Rain
11:54 PM 33.1 °F 23.9 °F 32.0 °F 96% 29.61 in 4.0 mi NE 12.7 mph - 0.14 in Rain Rain